[[{"header":{"parameterUnit":"m.s-1","parameterCategory":1,"la1":30.2991,"la2":30.254,"lo1":-89.0895,"lo2":-89.0444,"dy":0.0017,"dx":0.0017,"nx":28,"ny":28,"refTime":"2023-10-25T03:00:00:Z","depth":0,"parameterNumber":2,"parameterNumberName":"U-component_of_WINDS"},"data":[0,0,0,0,0,0,0,0,0,0,0,0,0,0,0,0,0,0,0,0,0,0,0,0,0,0,0,0,0,0,0,0,0,0,0,0,0,0,0,0,0,0,0,0,0,0,0,0,0,0,0,0,0,0,0,0,0,0,-6.1881,-6.1882,0,-6.1954,-6.1955,-6.1956,-6.1854,-6.185,-6.1847,-6.1843,-6.1915,-6.192,-6.1925,0,0,0,0,0,0,0,0,0,0,0,0,0,-6.1652,-6.1657,-6.1881,-6.1882,-6.1883,-6.1954,-6.1955,-6.1956,-6.1854,-6.185,-6.1846,-6.1842,-6.1913,-6.1919,-6.1925,0,0,0,0,0,0,0,0,0,0,0,0,0,-6.1741,-6.1658,-6.1881,-6.1841,-6.1838,-6.1954,-6.1955,-6.1956,-6.1855,-6.185,-6.1845,-6.1839,-6.1911,-6.1918,-6.1926,-6.2084,0,0,-6.195,-6.1954,0,0,0,0,0,0,0,0,-6.1736,-6.1749,-6.1846,-6.1844,-6.1841,-6.1889,-6.19,-6.1999,-6.1857,-6.1849,-6.1843,-6.1837,-6.191,-6.1918,-6.1943,-6.2087,-6.209,-6.1951,-6.1956,-6.1959,-6.1962,0,0,0,0,0,0,0,-6.173,-6.1746,-6.191,-6.1847,-6.1844,-6.1819,-6.1825,-6.1918,-6.1909,-6.1849,-6.1842,-6.1852,-6.1908,-6.1936,-6.1944,-6.2091,-6.1951,-6.1958,-6.1963,-6.1966,-6.2368,-6.2374,0,0,0,0,0,0,-6.1729,-6.1741,-6.1907,-6.1912,-6.1774,-6.1827,-6.1835,-6.1879,-6.1908,-6.1907,-6.1857,-6.1847,-6.1925,-6.1935,-6.1946,-6.2132,-6.1959,-6.1967,-6.1971,-6.2362,-6.2369,-6.2376,0,0,0,0,0,0,-6.1724,-6.1745,-6.1904,-6.1825,-6.1843,-6.1837,-6.1888,-6.1883,-6.1911,-6.1913,-6.1911,-6.1887,-6.1921,-6.1935,-6.2051,-6.2133,-6.197,-6.1977,-6.2355,-6.2364,-6.2373,-6.2505,0,0,0,0,0,0,-6.1718,-6.1744,-6.1803,-6.1827,-6.1848,-6.2008,-6.1893,-6.1889,-6.1926,-6.1914,-6.1941,-6.1941,-6.1918,-6.2039,-6.2059,-6.2141,-6.1984,-6.2348,-6.2359,-6.237,-6.2493,-6.2517,-6.2538,0,0,0,0,0,-6.171,-6.1837,-6.1807,-6.1828,-6.1923,-6.2013,-6.2025,-6.1997,-6.1933,-6.1992,-6.1994,-6.194,-6.2122,-6.2052,-6.2073,-6.2159,-6.2342,-6.2356,-6.2369,-6.2483,-6.2512,-6.2537,0,0,0,0,0,0,-6.1821,-6.1839,-6.1806,-6.1944,-6.1978,-6.1996,-6.207,-6.2029,-6.2081,-6.2068,-6.2031,-6.2038,-6.2161,-6.2172,-6.2094,-6.2313,-6.2221,-6.2239,-6.2301,-6.2329,-6.2351,-6.2344,-6.199,0,0,0,0,0,-6.1862,-6.1935,-6.1946,-6.2067,-6.2086,-6.2076,-6.2114,-6.209,-6.2123,-6.2137,-6.2147,-6.218,-6.2245,-6.2288,-6.2348,-6.2496,-6.25,-6.2565,-6.2588,-6.2606,-6.2621,-6.27,-6.2729,-6.242,-6.242,-6.2419,0,0,-6.1946,-6.1965,-6.2012,-6.209,-6.2113,-6.2188,-6.2088,-6.2172,-6.2227,-6.2149,-6.2258,-6.2268,-6.2303,-6.2435,-6.2494,-6.2448,-6.2708,-6.2623,-6.2638,-6.2643,-6.2717,-6.2746,-6.2772,-6.2429,-6.2427,-6.2426,0,0,-6.2137,-6.216,-6.2262,-6.2289,-6.2327,-6.232,-6.2345,-6.237,-6.2373,-6.2484,-6.2427,-6.2492,-6.2605,-6.2632,-6.2661,-6.2868,-6.2819,-6.2888,-6.3004,-6.3081,-6.3106,-6.3127,-6.3199,-6.3226,-6.2904,-6.2904,-6.2905,0,-6.2236,-6.2348,-6.232,-6.2409,-6.2444,-6.238,-6.2483,-6.251,-6.2566,-6.2591,-6.254,-6.2681,-6.27,-6.2838,-6.2889,-6.2915,-6.2942,-6.2883,-6.3105,-6.3126,-6.3145,-6.3214,-6.3241,-6.2912,-6.2911,-6.2911,-6.291,0,-6.2467,-6.2547,-6.2625,-6.2682,-6.2727,-6.2823,-6.2809,-6.2858,-6.2832,-6.283,-6.2944,-6.2965,-6.3028,-6.306,-6.3035,-6.3196,-6.3166,-6.3111,-6.3017,-6.3183,-6.3247,-6.3273,-6.2924,-6.2921,-6.2919,-6.2917,0,0,-6.2725,-6.2769,-6.2797,-6.2823,-6.2862,-6.2922,-6.3016,-6.308,-6.3122,-6.3164,-6.324,-6.3339,-6.3289,-6.3322,-6.33,-6.3369,-6.353,-6.3305,-6.3305,-6.3344,-6.3707,-6.3746,-6.3777,-6.35,-6.3505,-6.3509,-6.3704,0,-6.2915,-6.3077,-6.3056,-6.3212,-6.3284,-6.3227,-6.3308,-6.3341,-6.3344,-6.3405,-6.3408,-6.3478,-6.3407,-6.3427,-6.3493,-6.3496,-6.3602,-6.3482,-6.3569,-6.3573,-6.3559,-6.3811,-6.3852,-6.4034,-6.3729,-6.3733,-6.3736,0,-6.3156,-6.3208,-6.3372,-6.3401,-6.3431,-6.3505,-6.3562,-6.3623,-6.3659,-6.3656,-6.3696,-6.3662,-6.3756,-6.3664,-6.3792,-6.3712,-6.3747,-6.3755,-6.3761,-6.3765,-6.3662,-6.3819,-6.4092,-6.4119,-6.3775,-6.3772,-6.3769,0,-6.3325,-6.3437,-6.3549,-6.3573,-6.3611,-6.3664,-6.3682,-6.3714,-6.3754,-6.3805,-6.3831,-6.3892,-6.3925,-6.3973,-6.3956,-6.3891,-6.4088,-6.3995,-6.4087,-6.4087,-6.4127,-6.4124,-6.4407,-6.4156,-6.4155,-6.4155,-6.4154,0,-6.3537,-6.3639,-6.3626,-6.3694,-6.3807,-6.3783,-6.3895,-6.3906,-6.3936,-6.4005,-6.396,-6.4026,-6.4003,-6.4068,-6.4056,-6.4164,-6.4179,-6.4179,-6.4174,-6.4181,-6.4181,-6.4201,-6.4186,-6.4162,-6.416,-6.4159,-6.4158,0,-6.3743,-6.3739,-6.3857,-6.3885,-6.3895,-6.3976,-6.3999,-6.4064,-6.4065,-6.4154,-6.4173,-6.4174,-6.4248,-6.4239,-6.4321,-6.4313,-6.4447,-6.4428,-6.4435,-6.4429,-6.4521,-6.4512,-6.4824,-6.4863,-6.4589,-6.4592,-6.4594,0,-6.3877,-6.3954,-6.3991,-6.4035,-6.4058,-6.4129,-6.4171,-6.4152,-6.4197,-6.4247,-6.4306,-6.4377,-6.4432,-6.4554,-6.4561,-6.4624,-6.4605,-6.471,-6.4614,-6.4619,-6.4604,-6.4598,-6.4605,-6.4728,-6.4731,-6.4733,-6.4736,0,-6.4114,-6.4109,-6.4171,-6.4234,-6.4286,-6.4334,-6.4377,-6.4416,-6.4401,-6.4455,-6.4531,-6.4575,-6.4661,-6.4731,-6.4792,-6.4809,-6.477,-6.4767,-6.4791,-6.4797,-6.4797,-6.4797,-6.4483,-6.4758,-6.4756,-6.4755,-6.4753,-6.4752,-6.4286,-6.4352,-6.4389,-6.4461,-6.4492,-6.4535,-6.4597,-6.4608,-6.4671,-6.474,-6.4726,-6.4812,-6.4849,-6.4926,-6.4952,-6.5018,-6.498,-6.5015,-6.5023,-6.5032,-6.5042,-6.479,-6.503,-6.5029,-6.5028,-6.5028,-6.5027,0,-6.4518,-6.4541,-6.4607,-6.4671,-6.4727,-6.4689,-6.4736,-6.4786,-6.4862,-6.4901,-6.4958,-6.5046,-6.5116,-6.5131,-6.5197,-6.5248,-6.5231,-6.5265,-6.526,-6.5264,-6.5074,-6.5045,-6.5278,-6.5277,-6.5277,-6.5277,-6.5277,-6.5277,-6.4646,-6.4756,-6.4756,-6.4882,-6.4903,-6.4988,-6.5018,-6.5057,-6.5088,-6.519,-6.5248,-6.5258,-6.5287,-6.5356,-6.5418,-6.5421,-6.5446,-6.5487,-6.5482,-6.5303,-6.5278,-6.5254,-6.5226,-6.5493,-6.5494,-6.5667,-6.5669,-6.567]},{"header":{"parameterUnit":"m.s-1","parameterCategory":1,"la1":30.2991,"la2":30.254,"lo1":-89.0895,"lo2":-89.0444,"dy":0.0017,"dx":0.0017,"nx":28,"ny":28,"refTime":"2023-10-25T03:00:00:Z","depth":0,"parameterNumber":3,"parameterNumberName":"V-component_of_WINDS"},"data":[0,0,0,0,0,0,0,0,0,0,0,0,0,0,0,0,0,0,0,0,0,0,0,0,0,0,0,0,0,0,0,0,0,0,0,0,0,0,0,0,0,0,0,0,0,0,0,0,0,0,0,0,0,0,0,0,0,0,1.9913,1.9913,0,1.9919,1.9919,1.9919,1.9881,1.988,1.9879,1.9878,1.9883,1.9884,1.9885,0,0,0,0,0,0,0,0,0,0,0,0,0,1.9869,1.987,1.9913,1.9913,1.9913,1.9919,1.9919,1.9919,1.9882,1.988,1.9879,1.9878,1.9882,1.9884,1.9885,0,0,0,0,0,0,0,0,0,0,0,0,0,1.9883,1.9871,1.9913,1.9895,1.9893,1.9919,1.9919,1.9919,1.9882,1.988,1.9879,1.9877,1.9882,1.9883,1.9885,1.9927,0,0,1.989,1.9891,0,0,0,0,0,0,0,0,1.9882,1.9885,1.9898,1.9896,1.9895,1.9898,1.9905,1.9921,1.9882,1.9886,1.9878,1.9876,1.9889,1.989,1.9894,1.9927,1.9927,1.989,1.9891,1.9892,1.9892,0,0,0,0,0,0,0,1.9881,1.9884,1.9915,1.9898,1.9896,1.9887,1.9887,1.9908,1.9896,1.9886,1.9883,1.9884,1.9888,1.9893,1.9894,1.9927,1.989,1.9892,1.9893,1.9893,1.9997,1.9999,0,0,0,0,0,0,1.9883,1.9883,1.9915,1.9915,1.9884,1.9889,1.9889,1.9898,1.9896,1.9894,1.9886,1.9883,1.9891,1.9892,1.9894,1.9944,1.9892,1.9893,1.9894,1.9995,1.9997,1.9999,0,0,0,0,0,0,1.9882,1.9886,1.9914,1.9899,1.9902,1.9891,1.9902,1.9899,1.9904,1.9896,1.9894,1.9893,1.989,1.9892,1.992,1.9944,1.9894,1.9896,1.9993,1.9996,1.9998,2.0044,0,0,0,0,0,0,1.9881,1.9886,1.9901,1.9899,1.9903,1.994,1.9903,1.99,1.9907,1.9903,1.9902,1.99,1.9888,1.9917,1.9921,1.9945,1.9897,1.9991,1.9994,1.9997,2.004,2.0048,2.0055,0,0,0,0,0,1.9879,1.9913,1.9902,1.9906,1.9922,1.9941,1.9943,1.9929,1.9909,1.9925,1.992,1.99,1.9941,1.9921,1.9925,1.9949,1.9989,1.9993,1.9997,2.0037,2.0047,2.0054,0,0,0,0,0,0,1.9917,1.9912,1.99,1.9934,1.9939,1.9935,1.9954,1.9939,1.9949,1.9944,1.9926,1.9926,1.9958,1.9956,1.9934,1.9991,1.9962,1.9967,1.9991,1.9999,2.0006,2.0006,1.9898,0,0,0,0,0,1.9929,1.9946,1.9941,1.9971,1.9974,1.9964,1.9972,1.9961,1.9965,1.9966,1.9963,1.9967,1.9981,1.999,2.0002,2.004,2.004,2.006,2.0067,2.0073,2.0077,2.0099,2.0108,2.0012,2.0012,2.0012,0,0,1.9954,1.9954,1.9965,1.9979,1.9981,1.9999,1.9966,1.9985,1.9999,1.9969,1.9996,1.9994,1.9997,2.0031,2.0046,2.0031,2.0104,2.0078,2.0082,2.0084,2.0104,2.0113,2.0121,2.0015,2.0015,2.0014,0,0,2.001,2.0011,2.0037,2.0041,2.0045,2.0039,2.0045,2.0045,2.0043,2.007,2.0048,2.0064,2.0087,2.0091,2.0096,2.0157,2.0139,2.0161,2.0198,2.022,2.0227,2.0234,2.0256,2.0264,2.0165,2.0166,2.0166,0,2.004,2.0067,2.0053,2.0075,2.0082,2.0058,2.0085,2.0089,2.0096,2.0102,2.0086,2.0116,2.0117,2.0152,2.0167,2.0172,2.0179,2.0161,2.0227,2.0234,2.024,2.0261,2.0269,2.0168,2.0168,2.0168,2.0167,0,2.0105,2.0124,2.0145,2.0155,2.0164,2.0188,2.0179,2.019,2.0179,2.0175,2.0204,2.0204,2.0216,2.0224,2.0212,2.0258,2.0249,2.023,2.02,2.0252,2.0272,2.028,2.0172,2.0171,2.017,2.017,0,0,2.0181,2.0186,2.0194,2.0199,2.0204,2.0218,2.0242,2.0256,2.0266,2.0273,2.0293,2.0315,2.0299,2.0305,2.0294,2.0313,2.0363,2.0292,2.0292,2.0306,2.0415,2.0429,2.0439,2.0352,2.0353,2.0354,2.0415,0,2.0236,2.0278,2.0268,2.031,2.0328,2.0307,2.0328,2.0333,2.033,2.0345,2.0342,2.0358,2.0334,2.0338,2.0356,2.0353,2.0384,2.0348,2.0371,2.0371,2.0371,2.0449,2.0464,2.0521,2.0422,2.0424,2.0425,0,2.0305,2.0317,2.0361,2.0365,2.0373,2.0392,2.0405,2.0419,2.0426,2.0422,2.0431,2.0417,2.0441,2.0412,2.0446,2.0422,2.0431,2.0431,2.0433,2.0434,2.0401,2.0453,2.0539,2.0548,2.0436,2.0436,2.0435,0,2.0359,2.0385,2.0416,2.0421,2.0426,2.044,2.0443,2.0448,2.0457,2.0469,2.0475,2.0488,2.0496,2.0507,2.0498,2.0477,2.0534,2.0503,2.0532,2.0533,2.0545,2.0544,2.0633,2.055,2.055,2.055,2.0549,0,2.0421,2.0449,2.044,2.0459,2.049,2.0478,2.051,2.051,2.0515,2.0533,2.0515,2.0533,2.052,2.0537,2.053,2.056,2.0563,2.0561,2.0559,2.0563,2.0564,2.0568,2.0564,2.0552,2.0551,2.0551,2.055,0,2.0485,2.048,2.0512,2.0515,2.0517,2.054,2.0543,2.0561,2.0558,2.0582,2.0586,2.0581,2.0601,2.0593,2.0612,2.0608,2.0647,2.0639,2.0645,2.0643,2.0673,2.0671,2.0769,2.0782,2.069,2.069,2.0691,0,2.0525,2.0547,2.0554,2.0566,2.057,2.0589,2.06,2.059,2.0601,2.0612,2.0628,2.0647,2.066,2.0692,2.069,2.0706,2.0698,2.0732,2.07,2.0705,2.07,2.0699,2.0702,2.0738,2.0739,2.074,2.0741,0,2.0598,2.0595,2.0611,2.0628,2.0642,2.0654,2.0664,2.0675,2.0665,2.0679,2.07,2.0711,2.0733,2.0751,2.0765,2.0768,2.0753,2.0751,2.0758,2.0763,2.0766,2.0766,2.0663,2.0748,2.0748,2.0747,2.0747,2.0746,2.0652,2.0671,2.0679,2.0699,2.0706,2.0717,2.0735,2.0735,2.0752,2.077,2.0763,2.0787,2.0794,2.0812,2.0817,2.0836,2.0823,2.0833,2.0836,2.0839,2.0844,2.0763,2.0838,2.0838,2.0838,2.0838,2.0837,0,2.0724,2.0729,2.0748,2.0764,2.078,2.0766,2.0778,2.0792,2.0813,2.0822,2.0837,2.0861,2.088,2.088,2.0898,2.0913,2.0907,2.0918,2.0916,2.0918,2.0854,2.0846,2.0922,2.0922,2.0922,2.0922,2.0922,2.0922,2.0764,2.0796,2.0795,2.0831,2.0836,2.086,2.0868,2.0878,2.0886,2.0914,2.093,2.0931,2.0937,2.0955,2.0972,2.0971,2.0979,2.0993,2.099,2.093,2.0922,2.0914,2.0906,2.0994,2.0994,2.1052,2.1053,2.1053]}]]